Temp
22 22 21 21 20 21 21 20 20 20 20 21 21 20 20 20 20 20 20 20 20 19 19 18 18 18 16 17 16 16 16 16 16 12 13 12 11 10 10 10 10 10 10
23 22 22 21 21 20 20 20 20 20 20 22 22 21 20 19 20 20 20 20 20 19 19 18 17 17 16 16 16 16 15 14 14 12 11 11 11 10 10 10 10 9 10
23 22 21 21 20 20 21 20 20 20 20 20 20 20 20 20 20 19 20 20 19 19 19 18 18 17 16 16 17 16 16 15 14 12 11 10 10 10 10 10 11 10 10
22 21 21 21 20 20 20 20 20 20 20 20 21 21 20 20 21 20 19 19 19 19 19 18 18 17 16 17 15 15 15 14 14 13 12 11 11 11 11 11 11 10 10
20 20 20 20 20 20 20 21 20 21 21 21 21 21 20 20 20 20 20 20 20 19 19 18 17 17 17 17 17 16 16 14 15 15 12 12 13 12 12 12 12 11 11
20 20 19 19 18 19 20 21 22 22 22 21 20 20 20 21 21 21 21 20 20 19 19 18 17 16 17 17 17 16 17 16 13 15 13 12 12 12 12 11 11 11 10
21 21 21 20 18 19 19 22 23 22 22 21 22 21 20 21 22 20 22 21 19 19 19 19 17 16 17 17 17 17 16 15 13 12 12 12 11 11 11 11 11 11 10
16 16 17 17 19 17 18 20 21 20 21 21 20 19 20 21 21 21 21 21 20 19 20 20 18 17 16 16 15 16 16 14 14 12 11 10 10 10 10 11 12 12 11
19 18 18 16 17 17 17 17 19 21 20 19 19 19 19 19 20 21 21 21 20 19 20 22 20 19 18 16 13 15 15 14 14 13 12 11 11 11 12 11 13 12 12
15 16 18 18 17 17 17 18 19 20 19 20 19 18 19 18 19 21 20 17 18 18 19 20 18 18 20 17 13 15 15 15 13 13 12 12 12 12 12 12 12 12 12
16 17 17 17 18 18 19 18 18 19 19 19 19 18 19 20 19 21 19 17 16 16 17 18 18 18 18 18 15 13 13 15 14 11 11 10 10 11 11 11 12 11 12
18 17 16 16 17 17 17 18 18 18 18 18 18 18 19 19 20 19 20 18 16 15 16 16 18 16 17 17 15 13 15 14 11 12 13 12 12 12 11 10 12 11 12
19 19 19 18 14 14 15 16 16 17 18 18 18 18 19 19 20 20 19 17 16 16 15 16 17 16 16 16 16 14 14 13 13 14 14 13 12 11 11 11 12 12 11
16 16 17 17 15 14 15 14 15 15 16 18 18 18 19 19 19 18 18 18 18 19 19 18 17 16 16 15 14 14 14 13 14 15 14 13 11 11 11 11 11 11 11
13 14 14 15 15 14 14 14 14 14 16 17 17 17 17 17 18 17 17 18 18 19 20 17 16 16 15 14 14 14 15 14 14 14 13 12 11 12 12 12 12 12 13
15 15 15 15 14 14 13 13 13 15 15 16 16 16 16 16 16 17 16 18 19 20 18 18 17 16 15 15 14 12 13 14 13 14 13 12 12 12 12 12 12 13 13
13 13 14 15 15 14 14 13 12 13 14 15 15 15 15 16 17 17 17 17 16 17 17 17 16 16 16 16 13 13 13 14 13 13 13 13 13 13 12 12 13 13 13
13 13 13 14 14 14 13 12 11 12 12 13 14 14 15 15 16 17 17 16 17 17 16 16 17 17 16 16 14 15 14 14 13 13 13 12 12 13 12 13 13 13 13
12 13 12 12 13 13 13 13 10 11 12 12 13 13 14 15 16 16 17 15 15 15 15 16 16 16 14 14 15 15 15 14 13 13 12 13 13 13 13 13 13 13 13
12 12 11 11 11 12 12 12 10 10 11 12 12 13 13 14 13 14 14 14 14 15 14 15 15 15 15 14 14 14 14 14 13 12 12 12 12 13 13 13 13 12 13
12 12 11 11 10 10 10 8 8 10 10 10 11 12 13 14 13 13 14 13 13 14 14 14 13 14 14 15 15 14 13 13 13 13 12 12 12 12 12 12 13 12 13
11 11 10 10 9 8 7 7 7 8 9 9 10 11 12 12 13 13 13 13 13 13 14 14 14 13 13 14 14 14 13 13 12 12 12 11 11 11 11 12 12 12 13
9 9 8 7 6 5 5 5 6 6 7 8 8 9 10 11 12 12 12 12 13 13 13 13 13 14 14 14 14 13 13 13 13 12 11 10 10 11 11 12 12 12 13
8 7 6 5 5 5 5 5 5 6 6 7 8 8 9 10 10 11 12 12 12 12 13 13 13 13 13 13 13 13 13 13 13 12 11 11 11 11 11 12 12 12 12
7 6 6 6 4 3 4 4 5 5 5 6 6 7 7 8 8 9 10 11 11 12 12 13 13 13 13 13 13 13 13 13 13 13 12 11 11 11 11 11 11 11 11
7 5 4 3 2 2 3 3 3 3 4 4 4 5 5 6 6 7 7 9 10 11 12 12 13 13 13 13 13 13 13 13 13 12 12 11 11 10 11 10 11 11 11
Height
1534 1537 1538 1539 1540 1541 1542 1543 1544 1545 1545 1545 1545 1545 1546 1546 1546 1545 1544 1542 1540 1538 1538 1536 1533 1531 1532 1529 1527 1527 1526 1524 1522 1518 1519 1520 1521 1522 1522 1522 1521 1521 1519
1530 1533 1536 1537 1538 1539 1539 1540 1542 1542 1542 1542 1541 1541 1542 1542 1541 1540 1539 1538 1538 1537 1534 1534 1532 1532 1529 1527 1526 1524 1523 1521 1522 1520 1518 1519 1520 1521 1522 1521 1522 1519 1519
1527 1529 1532 1534 1534 1535 1535 1536 1537 1538 1539 1539 1538 1537 1536 1536 1536 1534 1534 1534 1535 1534 1532 1532 1531 1529 1528 1527 1524 1523 1523 1522 1521 1519 1519 1520 1520 1522 1522 1522 1521 1522 1520
1520 1526 1529 1530 1532 1533 1532 1532 1534 1534 1535 1535 1533 1532 1531 1530 1528 1529 1529 1530 1529 1529 1529 1529 1529 1527 1526 1525 1523 1521 1520 1521 1522 1520 1519 1521 1520 1521 1523 1523 1521 1519 1518
1517 1523 1530 1530 1530 1531 1529 1529 1529 1530 1531 1531 1529 1527 1526 1526 1525 1524 1525 1526 1526 1527 1527 1526 1526 1525 1524 1524 1522 1522 1520 1520 1522 1521 1520 1520 1520 1521 1521 1522 1519 1518 1517
1514 1517 1527 1530 1530 1530 1529 1525 1522 1524 1525 1523 1524 1522 1521 1520 1520 1521 1521 1522 1522 1523 1522 1521 1522 1523 1522 1523 1521 1520 1518 1516 1518 1519 1517 1519 1517 1518 1518 1520 1518 1516 1515
1513 1516 1514 1525 1531 1523 1527 1522 1514 1516 1518 1518 1517 1517 1517 1515 1516 1516 1517 1519 1518 1518 1517 1513 1517 1519 1520 1522 1520 1518 1517 1516 1518 1520 1519 1519 1519 1518 1518 1518 1517 1517 1514
1513 1516 1517 1520 1520 1525 1521 1516 1514 1511 1513 1514 1512 1513 1512 1510 1510 1509 1514 1514 1512 1513 1512 1509 1510 1515 1517 1521 1520 1518 1516 1515 1516 1521 1519 1517 1518 1517 1519 1519 1518 1517 1514
1514 1514 1515 1517 1520 1522 1515 1514 1508 1506 1508 1509 1508 1508 1507 1505 1506 1506 1508 1508 1508 1508 1507 1505 1505 1509 1512 1518 1521 1519 1516 1515 1515 1515 1517 1517 1517 1519 1517 1518 1521 1518 1517
1516 1514 1514 1514 1514 1511 1512 1506 1504 1503 1502 1503 1504 1505 1502 1503 1501 1502 1502 1502 1503 1504 1505 1504 1503 1506 1507 1513 1518 1518 1516 1516 1515 1514 1517 1519 1518 1519 1520 1520 1521 1519 1518
1514 1512 1512 1511 1509 1508 1508 1505 1501 1499 1498 1501 1502 1502 1500 1500 1500 1497 1497 1496 1498 1499 1500 1501 1501 1503 1506 1509 1514 1518 1517 1517 1517 1518 1519 1521 1521 1521 1521 1518 1519 1520 1517
1512 1513 1512 1510 1509 1508 1507 1506 1504 1501 1500 1501 1500 1499 1499 1499 1496 1493 1493 1492 1493 1494 1496 1498 1501 1502 1504 1507 1511 1515 1516 1516 1518 1523 1523 1522 1523 1524 1523 1521 1520 1519 1519
1510 1510 1509 1508 1509 1507 1506 1505 1504 1503 1500 1500 1499 1497 1498 1498 1496 1493 1492 1491 1491 1491 1493 1496 1498 1500 1503 1506 1508 1513 1516 1518 1522 1523 1525 1525 1523 1524 1522 1521 1521 1522 1523
1508 1509 1509 1508 1508 1507 1504 1503 1504 1501 1499 1500 1497 1496 1498 1498 1493 1490 1492 1493 1492 1489 1489 1492 1497 1499 1502 1505 1508 1511 1514 1518 1521 1523 1523 1523 1521 1520 1524 1526 1526 1527 1528
1509 1509 1509 1510 1509 1507 1503 1501 1500 1500 1497 1497 1496 1495 1495 1493 1489 1489 1489 1489 1490 1490 1491 1493 1494 1495 1496 1500 1505 1509 1512 1516 1517 1521 1522 1522 1522 1524 1525 1526 1528 1529 1532
1509 1510 1511 1510 1508 1506 1503 1501 1500 1497 1495 1494 1493 1492 1492 1490 1487 1486 1486 1486 1486 1486 1488 1491 1492 1494 1494 1497 1503 1506 1509 1514 1515 1518 1519 1520 1523 1524 1524 1527 1528 1530 1530
1509 1509 1510 1510 1509 1507 1504 1502 1497 1495 1492 1491 1490 1489 1489 1488 1485 1483 1483 1483 1481 1484 1484 1487 1489 1491 1494 1496 1500 1504 1506 1510 1512 1515 1517 1518 1521 1523 1524 1526 1527 1529 1531
1507 1508 1509 1509 1508 1506 1504 1501 1498 1496 1492 1490 1488 1486 1485 1484 1482 1479 1478 1480 1479 1480 1480 1484 1486 1488 1491 1495 1498 1502 1504 1506 1508 1510 1515 1515 1517 1522 1524 1525 1528 1528 1530
1508 1508 1506 1506 1505 1504 1503 1500 1495 1492 1489 1487 1485 1482 1480 1480 1479 1477 1475 1476 1477 1478 1478 1481 1483 1484 1487 1491 1495 1496 1498 1502 1505 1507 1508 1512 1516 1518 1523 1523 1525 1526 1528
1506 1503 1502 1502 1501 1501 1499 1496 1491 1487 1485 1483 1480 1478 1477 1477 1477 1475 1474 1474 1474 1474 1477 1476 1477 1479 1483 1486 1489 1491 1492 1496 1498 1502 1505 1508 1512 1517 1520 1522 1523 1523 1525
1504 1503 1501 1500 1498 1497 1495 1491 1487 1484 1481 1479 1478 1477 1475 1474 1473 1472 1472 1472 1471 1471 1473 1474 1477 1476 1479 1481 1483 1485 1488 1490 1493 1497 1502 1505 1509 1513 1517 1519 1520 1522 1525
1502 1501 1500 1498 1495 1492 1487 1485 1483 1480 1479 1476 1475 1473 1472 1471 1469 1469 1470 1470 1470 1470 1470 1471 1473 1473 1476 1477 1478 1480 1482 1484 1487 1492 1495 1500 1505 1509 1512 1514 1518 1520 1523
1500 1498 1496 1493 1489 1485 1483 1481 1479 1477 1474 1473 1470 1469 1469 1467 1466 1466 1467 1467 1467 1467 1467 1468 1471 1472 1473 1474 1476 1477 1478 1480 1483 1487 1491 1496 1499 1503 1507 1511 1515 1518 1521
1496 1494 1492 1489 1485 1482 1479 1477 1475 1473 1471 1469 1468 1467 1465 1464 1463 1462 1462 1461 1461 1462 1464 1465 1467 1469 1471 1472 1474 1475 1475 1476 1479 1483 1487 1489 1495 1500 1504 1508 1511 1514 1518
1496 1493 1489 1486 1483 1480 1476 1473 1471 1470 1468 1466 1464 1462 1461 1460 1459 1458 1457 1457 1458 1459 1460 1462 1465 1468 1469 1470 1470 1471 1472 1476 1477 1479 1482 1486 1490 1494 1500 1503 1507 1511 1515
1500 1497 1492 1488 1483 1480 1476 1472 1469 1467 1465 1463 1462 1460 1459 1457 1456 1456 1456 1455 1455 1456 1457 1459 1461 1463 1464 1465 1466 1468 1470 1473 1475 1476 1478 1481 1485 1489 1494 1500 1503 1508 1512
Wind_Speed
18 16 14 12 13 12 12 13 13 12 13 14 14 14 14 13 13 13 15 16 15 16 12 13 13 13 6 10 4 7 7 8 12 4 6 0 2 4 2 0 3 1 4
17 17 15 13 12 12 12 12 12 13 12 14 15 16 16 15 16 17 17 16 16 15 14 14 13 7 11 9 6 11 5 4 5 3 1 2 1 3 3 4 4 1 3
16 15 15 14 14 14 13 12 13 13 13 14 16 18 18 17 16 18 17 16 16 16 15 14 12 14 11 7 6 2 4 4 2 3 1 3 2 4 0 2 2 6 3
21 14 14 14 14 13 12 11 12 14 15 17 20 23 22 20 21 18 15 15 15 15 12 13 14 13 9 8 3 7 6 2 3 3 1 2 5 2 1 2 3 9 7
12 7 9 10 10 12 13 13 9 12 13 16 17 21 21 20 20 17 15 15 16 14 12 12 10 11 10 8 2 7 7 3 2 3 2 2 4 5 2 1 7 10 11
12 9 2 3 2 6 9 10 9 11 14 18 18 21 20 19 22 19 19 19 16 12 9 14 15 15 11 8 7 6 6 2 3 2 4 5 5 2 3 1 5 4 5
7 21 22 26 26 23 19 23 23 23 23 23 25 21 21 21 21 19 20 20 16 12 9 14 12 6 7 7 7 6 4 1 3 3 3 3 6 4 2 1 3 6 12
4 7 13 11 15 15 18 16 17 17 21 23 19 21 22 23 20 19 22 21 23 19 9 13 5 13 10 6 4 5 5 4 4 2 3 8 7 4 4 2 5 12 11
3 6 9 6 8 10 11 13 13 17 20 16 18 22 21 19 19 17 16 16 21 23 16 18 14 5 7 5 4 3 1 1 3 5 5 7 6 5 8 5 4 10 11
2 1 2 6 7 8 10 12 12 15 19 17 16 18 17 15 16 14 17 15 23 26 16 10 11 7 9 8 7 5 1 1 3 2 4 3 5 7 7 8 5 6 9
4 6 6 5 6 7 11 15 15 15 14 12 18 14 16 10 14 20 16 17 20 17 14 18 18 19 14 12 9 6 4 2 3 5 4 2 2 3 2 2 8 5 6
5 5 6 8 8 9 9 11 13 11 9 10 12 9 10 12 13 8 5 4 9 18 20 25 20 14 11 14 12 11 5 3 6 3 3 3 4 3 2 0 5 5 9
3 5 7 8 9 12 12 11 10 11 9 7 12 13 10 10 11 6 6 9 14 7 12 13 10 6 14 18 15 10 7 10 5 4 4 4 4 7 6 3 5 8 9
7 7 4 5 10 12 13 10 11 11 10 11 7 2 8 9 14 19 16 16 13 8 11 10 8 10 13 18 17 14 10 7 7 5 6 7 6 5 5 4 4 6 6
7 8 9 8 7 12 14 15 13 13 13 13 10 10 12 8 18 19 18 16 12 11 12 16 18 17 19 23 20 19 14 11 10 8 8 7 7 7 6 7 7 7 5
8 7 8 9 10 10 13 12 15 16 15 14 13 11 11 14 16 14 15 13 14 13 17 19 20 20 22 24 21 17 16 15 13 11 11 9 9 8 8 9 9 8 8
7 7 8 10 10 12 12 14 16 15 16 15 14 12 10 13 13 14 13 14 10 14 19 20 21 21 24 24 18 19 17 18 17 15 12 13 12 10 11 9 10 10 10
8 10 8 9 10 11 13 14 15 15 17 14 16 15 12 10 11 14 14 14 14 17 21 21 21 22 25 25 20 19 20 21 20 18 15 18 16 12 11 10 10 11 12
6 6 9 10 11 13 12 14 16 17 16 17 15 14 17 13 11 13 11 13 14 14 20 23 23 24 25 26 27 26 26 23 22 19 20 18 14 13 12 11 11 13 12
8 13 15 12 13 13 14 13 16 18 17 17 16 14 14 15 7 11 10 8 9 11 17 15 17 21 24 27 29 30 29 29 31 28 24 22 17 13 15 14 12 13 15
8 10 14 14 14 15 16 14 16 18 19 19 17 16 13 14 13 11 11 12 13 14 16 15 11 13 17 19 21 25 33 32 32 32 27 26 20 17 18 18 17 12 12
9 11 12 14 16 16 21 19 17 18 19 18 19 18 16 16 16 15 13 13 12 13 15 15 14 14 13 12 15 19 25 31 34 31 28 29 23 21 19 23 19 16 13
10 11 12 12 14 18 17 17 18 19 19 19 19 19 18 17 17 18 16 15 14 13 13 13 14 13 11 11 12 13 16 19 23 28 29 29 30 27 22 22 22 20 16
13 14 14 14 17 18 17 18 18 19 20 19 18 18 18 18 17 19 18 18 17 15 14 14 12 12 12 12 11 11 12 13 15 19 26 30 28 26 24 24 25 24 22
15 16 18 19 18 18 16 15 15 16 17 17 17 17 17 16 14 16 16 15 14 14 15 15 15 14 14 13 12 12 10 10 11 16 21 26 26 28 27 26 26 23 22
14 14 18 17 16 16 16 14 12 13 14 14 14 13 13 13 10 11 10 10 10 13 13 14 14 15 15 15 14 13 14 14 13 13 15 23 28 27 28 21 25 26 24
Wind_Direction
209 217 218 223 227 237 236 245 255 259 263 268 272 273 272 271 265 255 267 263 277 282 289 301 304 306 303 338 335 323 333 315 314 272 312 288 288 132 244 16 86 324 336
211 209 221 223 220 231 240 242 251 260 265 275 280 278 277 276 273 266 256 257 264 275 290 286 296 293 306 335 33 317 332 353 316 321 255 159 202 126 252 78 141 212 317
210 212 213 222 225 231 239 251 259 264 268 272 272 276 277 277 268 273 273 261 264 268 281 287 297 289 301 312 341 339 332 343 306 331 212 196 160 177 78 146 76 196 257
197 201 216 222 233 241 249 259 271 276 276 273 271 271 269 268 267 265 261 262 269 268 286 277 290 285 280 325 316 16 335 91 327 102 124 172 143 202 226 248 248 201 257
158 174 233 231 233 240 234 234 253 267 276 278 279 274 273 267 266 266 262 259 265 268 284 284 280 267 291 313 312 280 336 20 284 223 166 170 185 183 211 268 257 256 269
149 145 36 324 248 257 253 233 250 274 267 273 276 279 273 269 265 257 258 254 259 263 275 294 287 272 287 295 319 331 347 220 208 238 214 190 186 146 248 253 297 316 359
248 284 265 281 273 266 272 262 261 271 277 280 281 285 280 280 276 275 272 263 235 233 276 301 313 270 299 286 320 335 354 76 196 190 163 172 185 195 136 60 347 27 22
114 197 209 226 235 253 252 252 262 266 276 281 288 280 278 274 265 263 265 261 249 222 254 301 257 240 275 294 326 350 25 103 141 98 197 192 185 156 132 159 37 10 348
196 194 201 223 266 273 288 285 294 287 276 281 282 284 284 276 273 273 282 280 248 227 247 288 284 250 282 249 244 268 329 316 166 221 248 201 190 172 127 92 290 353 359
359 79 170 266 311 320 309 318 301 298 298 271 271 284 289 283 294 294 295 262 242 232 239 242 220 255 323 245 212 248 273 143 155 148 135 171 159 145 142 110 46 3 13
36 18 355 329 319 318 317 315 312 298 297 267 270 275 284 301 301 301 283 261 233 202 262 268 259 269 286 232 205 213 198 261 139 108 120 96 102 112 116 238 134 40 67
31 17 5 353 335 318 309 309 313 321 287 272 278 280 279 294 318 297 265 292 216 254 251 252 265 243 222 206 189 209 215 203 136 169 170 176 169 179 226 213 160 127 91
9 345 332 336 337 330 331 328 323 318 313 327 273 275 257 261 283 319 353 323 298 260 218 206 207 207 195 193 201 197 191 146 176 191 216 209 186 205 221 127 97 119 102
36 20 359 327 329 319 326 333 329 317 314 299 300 327 291 260 268 287 289 296 301 304 205 218 218 216 207 201 197 197 186 170 191 207 207 203 186 155 140 156 119 121 110
47 22 1 344 330 327 321 328 326 318 307 290 286 288 265 269 262 273 284 291 257 243 239 211 210 207 203 204 203 207 189 198 196 197 199 202 181 169 175 166 160 147 148
42 12 359 356 342 330 324 325 316 314 309 298 287 271 275 281 291 287 286 280 269 233 225 222 218 218 211 211 210 207 201 204 194 200 198 188 187 185 178 172 167 164 158
36 4 357 350 337 335 334 322 320 323 313 308 296 290 280 284 291 286 276 275 262 234 222 230 229 226 223 219 207 206 204 203 199 200 199 193 183 188 182 182 173 171 170
17 348 348 331 326 321 319 318 319 313 321 312 300 291 289 285 295 292 279 257 248 233 224 224 228 227 222 216 208 214 209 204 203 198 201 200 174 195 183 182 186 179 179
353 329 329 324 317 314 318 308 311 313 309 313 302 296 288 293 300 301 274 255 245 238 230 227 225 226 214 211 210 211 211 205 207 198 203 180 182 186 194 187 185 180 183
343 334 338 328 323 312 310 312 311 313 310 305 308 302 293 286 294 300 286 242 246 238 234 241 234 231 231 227 223 213 214 210 213 207 209 184 183 190 195 182 193 183 180
345 334 329 330 320 313 306 307 306 307 305 303 298 293 296 281 251 258 272 256 241 228 218 217 220 240 236 237 234 227 220 217 220 222 216 199 192 184 197 190 179 182 176
348 337 331 321 316 305 293 304 304 303 302 299 295 291 282 278 269 260 252 246 241 228 224 219 220 223 223 225 232 229 225 223 226 227 223 207 199 202 196 186 181 176 185
354 349 338 328 316 307 312 307 305 302 303 301 297 293 289 277 268 257 246 241 234 228 228 225 225 226 228 231 227 227 224 225 224 223 218 207 208 201 195 190 183 177 190
8 2 349 335 327 324 316 306 302 300 299 297 294 288 286 278 270 255 245 240 237 226 221 216 210 216 217 212 215 215 211 216 218 219 212 213 212 203 202 194 190 188 192
15 4 350 346 340 338 328 313 304 299 299 298 292 285 279 277 267 255 239 232 228 222 217 212 213 216 218 218 219 219 219 215 208 213 211 210 210 210 209 210 202 197 196
16 7 358 0 356 348 346 340 328 318 313 305 299 289 280 270 260 248 231 215 211 215 205 204 212 219 221 221 222 222 220 224 223 221 214 213 210 209 208 209 210 203 196